TimeEDT,TemperatureF,Dew PointF,Humidity,Sea Level PressureIn,VisibilityMPH,Wind Direction,Wind SpeedMPH,Gust SpeedMPH,PrecipitationIn,Events,Conditions,WindDirDegrees,DateUTC
12:51 AM,71.1,57.9,63,30.16,10.0,South,3.5,-,N/A,,Mostly Cloudy,180,2013-06-22 04:51:00
1:51 AM,68.0,57.9,70,30.16,10.0,SSE,8.1,-,N/A,,Mostly Cloudy,160,2013-06-22 05:51:00
2:51 AM,69.1,57.9,68,30.13,10.0,South,9.2,-,N/A,,Mostly Cloudy,170,2013-06-22 06:51:00
3:51 AM,68.0,57.9,70,30.13,10.0,South,5.8,-,N/A,,Mostly Cloudy,180,2013-06-22 07:51:00
4:51 AM,72.0,57.9,61,30.11,10.0,South,9.2,-,N/A,,Mostly Cloudy,190,2013-06-22 08:51:00
5:51 AM,72.0,57.9,61,30.11,10.0,South,9.2,-,N/A,,Partly Cloudy,190,2013-06-22 09:51:00
6:51 AM,72.0,59.0,64,30.12,10.0,South,9.2,-,N/A,,Overcast,190,2013-06-22 10:51:00
7:51 AM,75.0,60.1,60,30.13,10.0,South,12.7,-,N/A,,Scattered Clouds,190,2013-06-22 11:51:00
8:51 AM,78.1,63.0,60,30.14,10.0,SSW,11.5,-,N/A,,Mostly Cloudy,210,2013-06-22 12:51:00
9:51 AM,80.1,64.9,60,30.15,10.0,SW,8.1,-,N/A,,Clear,220,2013-06-22 13:51:00
10:51 AM,82.0,66.0,58,30.16,10.0,SW,9.2,-,N/A,,Mostly Cloudy,220,2013-06-22 14:51:00
11:51 AM,84.9,68.0,57,30.15,10.0,SW,15.0,19.6,N/A,,Mostly Cloudy,220,2013-06-22 15:51:00
12:51 PM,87.1,69.1,55,30.13,10.0,SSW,12.7,-,N/A,,Mostly Cloudy,210,2013-06-22 16:51:00
1:51 PM,88.0,69.1,53,30.12,10.0,SSW,10.4,-,N/A,,Mostly Cloudy,210,2013-06-22 17:51:00
2:51 PM,89.1,69.1,52,30.11,10.0,SSW,11.5,-,N/A,,Mostly Cloudy,210,2013-06-22 18:51:00
3:51 PM,89.1,68.0,50,30.08,10.0,South,12.7,-,N/A,,Mostly Cloudy,190,2013-06-22 19:51:00
4:51 PM,88.0,68.0,51,30.05,10.0,South,11.5,-,N/A,,Partly Cloudy,190,2013-06-22 20:51:00
5:51 PM,88.0,66.9,49,30.03,10.0,South,13.8,-,N/A,,Mostly Cloudy,190,2013-06-22 21:51:00
6:51 PM,87.1,68.0,53,30.05,10.0,SW,12.7,23.0,N/A,,Scattered Clouds,220,2013-06-22 22:51:00
7:51 PM,84.9,66.9,55,30.05,10.0,SSW,12.7,-,N/A,,Scattered Clouds,210,2013-06-22 23:51:00
8:51 PM,84.0,66.0,55,30.05,10.0,SSW,8.1,-,N/A,,Mostly Cloudy,210,2013-06-23 00:51:00
9:51 PM,81.0,66.0,60,30.06,10.0,SW,8.1,-,N/A,,Mostly Cloudy,230,2013-06-23 01:51:00
10:51 PM,78.1,66.0,66,30.09,10.0,WSW,4.6,-,N/A,,Mostly Cloudy,250,2013-06-23 02:51:00
11:51 PM,75.9,64.9,69,30.09,10.0,WNW,5.8,-,N/A,,Partly Cloudy,290,2013-06-23 03:51:00